Tracking 35048 objects as of 19-Aug-2026
HD Live streaming from Space Station
objects crossing your sky now

SL-8 R/B


SL-8 R/B is no longer on orbit


NORAD ID: 13258
Int'l Code: 1982-054B
Launch date: June 3, 1982
Source: Commonwealth of Independent States (former USSR) (CIS)
Launch site: KAPUSTIN YAR MISSILE AND SPACE COMPLEX (KYMTR)
Decay date: 1982-06-05

Note: This is a ROCKET BODY
Your satellite tracking list
Your tracking list is empty




NASA's NSSDC Master Catalog

Two Line Element Set (TLE):
1 13258U 82054  B 82156.47073853  .08550298 +56390-4 +16619-3 0  9997
2 13258 050.6641 140.1377 0023629 329.3288 030.3938 16.44731867000242
Source of the keplerian elements: AFSPC